Probability
0 0 0 0 0 0 0 0 0 0 0 0 0 0 0 0 0 0 0 0 0 0 0 0 0 0 0 0 0 0 0 0 0 0 0 0 0 0 0 0 0 0 0
0 0 0 0 0 0 0 0 0 0 0 0 0 0 0 0 0 0 0 0 0 0 0 0 0 0 0 0 0 0 0 0 0 0 0 0 0 0 0 0 0 0 0
0 0 0 0 0 0 0 0 0 0 0 0 0 0 0 0 0 0 0 0 0 0 0 0 0 0 0 0 0 0 0 0 0 0 0 0 0 0 0 0 0 0 0
0 0 0 0 0 0 0 0 0 0 0 0 0 0 0 0 0 0 0 0 0 0 0 0 0 0 0 0 0 0 0 0 0 0 0 0 0 0 0 0 0 0 0
0 0 0 0 0 0 0 0 0 0 0 0 0 0 0 0 0 0 0 0 0 0 0 0 0 0 0 0 0 0 0 0 0 0 0 0 0 0 0 0 0 0 0
0 0 0 0 0 0 0 0 0 0 0 0 0 0 0 0 0 0 0 0 0 0 0 0 0 0 0 0 0 0 0 0 0 0 0 0 0 0 0 0 0 0 0
0 0 0 0 0 0 0 0 0 0 0 0 0 0 0 0 0 0 0 0 0 0 0 0 0 0 0 0 0 0 0 0 0 0 0 0 0 0 0 0 0 0 0
0 0 0 0 0 0 0 0 0 0 0 0 0 0 0 0 0 0 0 0 0 0 0 0 0 0 0 0 0 0 0 0 0 0 0 0 0 0 0 0 0 0 0
0 0 1 0 0 0 0 0 0 0 0 0 0 0 0 0 0 0 0 0 0 0 0 0 0 0 0 0 0 0 0 0 0 0 0 0 0 0 0 0 0 0 0
0 0 0 0 0 0 0 0 0 0 0 0 0 0 0 0 0 0 0 0 0 0 0 0 0 0 0 0 0 0 0 0 0 0 0 0 0 0 0 0 0 0 0
0 0 0 0 0 0 0 0 0 0 0 0 0 0 0 0 0 0 0 0 0 0 0 0 0 0 0 0 0 0 0 0 0 0 0 0 0 0 0 0 0 0 0
0 0 0 0 0 0 0 0 0 0 0 0 0 0 0 0 0 0 0 0 0 0 0 0 0 0 0 0 0 0 0 0 0 0 0 0 0 0 0 0 0 0 0
0 0 0 0 0 0 0 0 0 0 0 0 0 0 0 0 0 0 0 0 0 0 0 0 0 0 0 0 0 0 0 0 0 0 0 0 0 0 0 0 0 0 0
0 0 0 0 0 0 0 0 0 0 0 0 0 0 0 0 0 0 0 0 0 0 0 0 0 0 0 0 0 0 0 0 0 0 0 0 0 0 0 0 0 0 0
0 0 0 0 0 0 0 0 0 0 0 0 0 0 0 0 0 0 0 0 0 0 0 0 0 0 0 0 0 0 0 0 0 0 0 0 0 0 0 0 0 0 0
0 0 0 0 0 0 0 0 0 0 0 0 0 0 0 0 0 0 0 0 0 0 0 0 0 0 0 0 0 0 0 0 0 0 0 0 0 0 0 0 0 0 0
0 0 0 0 0 0 0 0 0 0 0 0 0 0 0 0 0 0 0 0 0 0 0 0 0 0 0 0 0 0 0 0 0 0 0 0 0 0 0 0 0 0 0
0 0 0 0 0 0 0 0 0 0 0 0 0 0 0 0 0 0 0 0 0 0 0 0 0 0 0 0 0 0 0 0 0 0 0 0 0 0 0 0 0 0 0
0 0 0 0 0 0 0 0 0 0 0 0 0 0 0 0 0 0 0 0 0 0 0 0 0 0 0 0 0 0 0 0 0 0 0 0 0 0 0 0 0 0 0
0 0 0 0 0 0 0 0 0 0 0 0 0 0 0 0 0 0 0 0 0 0 0 0 0 0 0 0 0 0 0 0 0 0 0 0 0 0 0 0 0 0 0
0 0 0 0 0 0 0 0 0 0 0 0 0 0 0 0 0 0 0 0 0 0 0 0 0 0 0 0 0 0 0 0 0 0 0 0 0 0 0 0 0 0 0
0 0 0 0 0 0 0 0 0 0 0 0 0 0 0 0 0 0 0 0 0 0 0 0 0 0 0 0 0 0 0 0 0 0 0 0 0 0 0 0 0 0 0
0 0 0 0 0 0 0 0 0 0 0 0 0 0 0 0 0 0 0 0 0 0 0 0 0 0 0 0 0 0 0 0 0 0 0 0 0 0 0 0 0 0 0
0 0 0 0 0 0 0 0 0 0 0 0 0 0 0 0 0 0 0 0 0 0 0 0 0 0 0 0 0 0 0 0 0 0 0 0 0 0 0 0 0 0 0
0 0 0 0 0 0 0 0 0 0 0 0 0 0 0 0 0 0 0 0 0 0 0 0 0 0 0 0 0 0 0 0 0 0 0 0 0 0 0 0 0 0 0
0 0 0 0 0 0 0 0 0 0 0 0 0 0 0 0 0 0 0 0 0 0 0 0 0 0 0 0 0 0 0 0 0 0 0 0 0 0 0 0 0 0 0
Wind_Speed
6 6 7 7 7 7 7 7 6 6 7 7 7 7 7 6 6 5 6 7 7 6 6 6 6 7 6 4 4 5 4 4 5 3 2 4 4 6 5 4 5 3 3
5 5 6 6 7 7 7 7 8 7 7 7 6 6 6 5 5 6 6 7 7 8 8 8 7 7 8 6 6 7 6 4 5 5 3 4 4 6 6 6 4 3 2
5 5 4 5 6 7 8 7 7 6 4 3 4 5 5 5 5 6 6 6 8 9 8 9 8 8 8 6 7 8 6 5 4 6 5 3 3 4 5 5 4 1 2
6 6 5 5 5 5 5 5 4 3 3 3 3 3 4 6 7 6 7 7 8 8 7 8 8 9 9 9 8 8 8 7 5 7 6 5 3 4 5 4 2 1 1
7 7 7 6 5 5 4 4 4 3 4 3 2 2 3 4 6 7 7 8 8 7 6 7 9 11 13 11 9 9 9 8 8 7 8 6 4 7 7 5 4 2 0
10 10 8 7 7 7 6 6 5 4 3 2 2 1 3 3 6 10 8 7 7 7 7 7 7 10 13 16 15 17 16 14 12 9 8 9 8 6 6 5 5 4 3
11 10 9 8 8 8 7 5 5 4 2 1 1 1 2 4 6 7 10 6 6 6 7 6 5 6 9 9 13 19 19 21 21 14 12 10 11 11 11 9 6 5 4
10 10 10 9 9 8 8 7 6 4 3 2 2 3 3 4 5 5 7 5 5 6 6 6 6 6 6 7 6 8 9 12 15 13 12 12 11 11 14 11 7 5 4
8 8 9 10 10 9 9 8 5 4 3 3 3 3 3 4 5 4 7 4 4 5 5 5 6 6 9 10 7 7 8 7 10 11 10 10 11 14 14 9 8 6 3
5 7 9 10 11 10 8 6 4 3 4 3 4 4 4 4 5 6 8 3 4 4 4 5 9 9 10 12 8 8 9 8 8 9 8 8 10 14 21 14 11 9 5
2 2 4 5 7 7 6 5 4 4 4 4 4 3 3 4 5 7 9 4 5 5 5 4 4 10 11 11 8 7 9 7 7 7 6 6 6 8 11 10 9 9 8
4 4 3 3 4 5 6 5 5 5 5 4 3 3 2 2 4 6 9 7 6 5 4 4 4 8 10 11 7 6 6 6 4 4 5 6 7 9 9 9 8 7 7
4 3 2 3 3 3 4 5 4 4 3 3 3 3 3 2 3 6 8 9 9 4 3 6 6 6 8 7 8 9 7 4 4 4 6 7 7 6 6 6 5 4 3
3 2 2 2 2 2 2 3 4 4 3 3 3 3 3 2 2 2 3 4 6 5 4 6 7 5 3 3 5 5 3 4 4 4 4 3 4 5 5 5 5 4 3
3 3 3 2 2 2 2 2 2 3 4 4 3 3 3 3 5 8 7 5 5 5 6 3 2 2 2 2 2 2 3 3 3 3 3 4 4 5 4 4 4 4 5
2 2 2 2 2 2 3 3 7 3 4 5 4 3 1 2 4 9 11 10 11 13 7 3 4 4 4 4 4 3 3 3 3 2 3 4 4 4 4 3 3 4 5
2 2 1 1 2 2 2 3 3 2 4 4 4 4 3 2 1 5 8 10 12 12 4 3 4 4 4 4 4 3 3 3 2 2 3 3 3 3 4 3 4 3 3
3 3 3 2 1 2 2 3 3 3 2 1 3 4 5 5 5 5 9 9 5 4 2 3 4 4 4 4 4 4 3 3 3 3 3 4 4 4 4 4 4 4 4
3 2 1 1 1 1 1 1 2 2 3 3 2 3 5 7 7 6 6 3 3 4 3 3 4 4 4 4 4 4 4 3 3 3 4 5 5 5 4 4 4 6 4
2 3 2 1 1 2 1 1 2 3 4 3 3 2 2 2 2 2 1 1 2 3 4 4 4 4 4 4 4 4 4 4 4 4 4 5 5 5 5 6 5 5 5
2 1 2 2 1 1 1 2 3 3 3 2 2 2 4 2 2 2 2 3 3 3 3 3 3 3 4 4 4 5 5 5 5 5 4 4 5 4 4 4 4 4 4
3 2 1 1 1 1 2 2 2 2 2 3 2 1 3 1 1 1 2 2 3 3 3 3 3 3 4 4 4 5 5 5 5 5 5 5 4 4 4 3 3 3 3
3 3 2 1 2 3 3 2 2 2 2 3 2 2 1 1 1 2 2 2 2 2 2 3 3 3 3 3 4 5 6 6 6 6 6 6 6 5 4 4 4 4 5
3 3 3 3 3 3 3 2 2 2 2 2 2 2 2 2 2 3 3 3 2 3 3 3 3 5 5 4 4 4 5 4 5 6 8 7 6 6 5 5 6 8 7
3 3 3 3 3 3 2 2 2 2 2 2 1 1 1 1 1 2 2 2 3 3 4 3 3 4 6 7 6 5 7 9 8 6 6 6 6 6 6 6 6 7 7
3 4 3 3 2 2 2 2 2 1 1 1 1 1 1 1 1 1 1 1 2 2 3 3 4 5 6 5 7 8 9 11 12 10 5 4 5 5 6 6 9 8 8
Wind_Direction
188 180 180 184 176 167 170 175 177 185 193 208 215 223 225 225 225 217 211 201 205 215 216 205 194 172 177 178 169 163 149 137 135 150 126 139 145 145 127 107 85 50 53
193 183 179 175 173 177 184 189 189 189 194 205 209 214 221 224 224 216 214 204 205 212 213 200 197 180 178 180 176 178 170 149 135 143 132 153 151 155 142 125 114 105 76
174 169 160 158 167 183 191 193 193 190 198 210 210 214 224 230 225 210 203 203 211 217 207 196 197 186 183 179 180 177 175 166 139 144 149 154 131 151 133 117 107 106 121
170 169 173 174 171 181 191 199 202 202 221 238 234 228 231 233 229 219 206 209 213 214 203 197 197 195 190 182 182 176 167 158 144 149 148 148 138 149 138 133 138 202 138
178 188 193 187 183 187 205 217 217 215 221 219 204 212 229 226 222 212 203 204 204 204 198 197 202 200 193 186 184 179 167 159 156 154 155 158 164 172 175 161 150 155 120
189 202 198 184 186 194 205 210 212 212 205 189 198 237 258 252 241 220 204 200 197 197 199 200 206 205 202 196 193 186 177 168 166 163 168 183 188 176 154 160 140 148 190
200 203 197 189 189 195 196 192 196 195 186 188 224 250 270 276 268 242 223 202 193 191 185 178 184 181 182 189 199 194 190 183 175 168 174 189 186 183 171 168 165 162 177
201 198 193 190 192 187 184 189 191 184 193 217 253 271 276 274 252 234 208 179 171 176 171 168 166 161 164 163 168 182 190 191 187 182 188 192 189 181 183 177 156 125 89
200 192 191 189 191 186 189 192 186 182 200 216 230 245 253 264 243 196 146 136 139 149 156 159 165 171 182 167 156 166 178 192 198 200 196 190 177 170 165 149 150 149 154
210 199 192 191 189 187 188 183 180 186 209 229 232 230 233 245 240 202 154 139 146 148 150 173 181 174 175 172 171 172 183 191 184 196 198 188 177 175 177 179 172 168 152
86 132 179 191 190 183 177 170 181 191 205 225 224 226 230 240 248 210 169 158 163 158 159 174 193 173 161 165 171 187 199 183 181 186 186 175 169 174 184 185 179 174 169
77 80 98 134 178 182 168 167 175 176 183 190 198 222 242 250 237 220 188 177 168 163 170 172 180 173 158 152 156 176 180 167 165 169 171 174 179 185 188 184 181 185 181
92 81 84 102 115 143 158 160 159 161 162 176 187 211 237 253 254 231 196 177 169 157 162 166 171 181 171 163 172 180 179 179 179 181 190 192 189 177 149 144 150 160 160
113 113 113 112 115 141 156 157 154 164 169 183 196 209 219 223 224 199 167 156 151 134 123 129 123 133 153 173 179 187 190 202 200 199 194 168 135 135 146 147 149 153 166
95 115 119 122 115 96 90 89 174 185 177 177 199 199 196 217 223 198 176 171 161 144 126 110 115 131 169 209 210 194 185 193 197 169 150 145 152 155 153 145 141 148 171
97 108 124 120 100 99 109 79 50 71 118 135 138 138 168 252 245 207 193 175 157 148 132 151 169 182 197 208 212 205 196 198 195 163 140 144 159 168 159 144 142 155 179
133 131 131 127 132 144 150 152 141 78 59 65 70 80 83 51 78 171 173 160 156 152 137 166 182 194 204 210 215 209 201 192 176 155 139 146 162 171 171 172 163 157 179
121 114 120 129 150 161 169 171 167 163 146 81 53 78 94 93 98 123 138 131 149 169 165 175 195 201 206 209 214 214 205 186 176 172 163 162 170 174 178 184 180 174 174
127 125 119 102 117 154 159 144 145 151 141 138 129 95 92 90 91 117 137 139 166 196 203 193 190 194 201 204 205 203 194 189 184 175 178 177 175 172 182 188 184 185 174
159 167 143 94 66 43 57 106 125 132 138 149 165 164 142 118 126 152 201 220 199 205 211 209 201 198 198 198 196 192 191 190 187 185 182 180 178 177 182 184 182 183 190
170 172 134 97 96 90 111 121 132 138 147 161 187 186 167 164 187 203 217 229 227 220 216 219 216 206 203 196 194 197 201 201 193 187 180 174 168 170 172 172 180 185 185
153 156 142 134 144 141 134 125 123 135 148 147 130 128 174 175 189 219 238 243 239 232 224 221 224 217 206 200 201 204 208 213 207 195 183 172 161 154 153 164 176 178 192
138 143 127 103 108 125 118 111 117 128 133 140 150 164 190 222 240 254 257 255 251 249 241 235 239 238 226 213 207 208 214 215 208 198 191 185 180 179 180 191 201 211 221
117 129 118 106 107 119 131 140 148 159 160 166 182 200 214 236 251 255 253 251 249 251 245 234 235 241 238 228 223 221 224 216 196 195 191 188 186 187 190 201 213 222 223
111 117 116 111 113 125 139 151 164 173 179 190 207 217 233 247 276 290 272 252 248 255 259 249 236 236 240 236 229 225 221 213 204 190 183 183 185 189 195 205 213 218 219
126 121 114 114 112 114 130 148 145 147 163 182 197 203 201 216 283 308 307 289 276 276 283 276 264 258 253 245 237 230 219 209 206 202 188 180 188 203 211 220 221 220 217